Regional Weather Roundup
Issued by NWS

Home | Current Version | Previous Version | Graphics & Text | Print | Product List | Glossary On
Versions: 1 2 3 4 5 6 7 8 9 10 11 12 13 14 15 16 17 18 19 20 21 22 23 24 25 26 27 28 29 30 31 32 33 34 35 36 37 38 39 40 41 42 43 44 45 46 47 48 49 50
000
ASUS43 KBIS 261420
RWRND

NORTH DAKOTA REGIONAL WEATHER ROUNDUP
NATIONAL WEATHER SERVICE BISMARCK ND
800 AM CST MON JAN 26 2015

NOTE: "FAIR" INDICATES FEW OR NO CLOUDS BELOW 12,000 FEET WITH NO
SIGNIFICANT WEATHER AND/OR OBSTRUCTIONS TO VISIBILITY.


NDZ001>003-009>011-017-261500-
NORTHWEST NORTH DAKOTA

CITY           SKY/WX    TMP DP  RH WIND       PRES   REMARKS
WILLISTON      CLEAR     33  29  85 SW8       29.93R
MINOT          CLEAR     37  29  72 W18       29.84R
MINOT AFB      CLEAR     35  34  96 NW16      29.83R
$$

NDZ018>021-031>035-040>046-261500-
SOUTHWEST NORTH DAKOTA

CITY           SKY/WX    TMP DP  RH WIND       PRES   REMARKS
BISMARCK       CLEAR     37  31  78 NW8       29.88R
DICKINSON      CLEAR     34  30  85 W10       29.92R
GARRISON         N/A     36  31  82 W13       29.86R
HETTINGER ARPT CLEAR     34  30  85 W8        29.96R
$$

NDZ004>008-012>016-024-026-027-054-261500-
NORTHEAST NORTH DAKOTA

CITY           SKY/WX    TMP DP  RH WIND       PRES   REMARKS
GRAND FORKS    PTCLDY    36  30  79 NW16G23   29.68R
GRND FRKS AFB  CLEAR     36  29  77 NW14      29.70R
DEVILS LAKE    CLEAR     34  28  80 NW18      29.75R
$$

NDZ022-023-025-028>030-036>039-047>053-261500-
SOUTHEAST NORTH DAKOTA

CITY           SKY/WX    TMP DP  RH WIND       PRES   REMARKS
FARGO          CLEAR     33  28  81 W12       29.71R
JAMESTOWN      CLEAR     36  30  79 NW15      29.76R
$$



USA.gov is the U.S. government's official web portal to all federal, state and local government web resources and services.